Pagrindinis puslapis
METAR-TAF:

METAR-TAF

Oro uostai :

Taba, Egiptas

platuma: 29-35-57N, ilguma: 034-46-36E, Aukštis: 749 m

METAR: trūkstamas

Laikas: 12:35 (10:35 UTC)

Prognozė

Ataskaita buvo paskelbta 5 valandos ir 35 minutes, ne 05:00 UTC
Prognozė galioja nuo 07 metu 06 UTC su 08 metu 12 UTC
Vėjas 15 kt iš Šiaurės/Šiaurės Rytų
Matomumas 10 km arba daugiau
nėra debesų žemiau 1500 m ir nėra kamuolinių lietaus debesų

TAF: HETB 070500Z 0706/0812 02015KT CAVOK

Orai ataskaitas ir orų prognozės (METAR, TAF).

turimą stotys yra geltonos ir raudonos taškus žemėlapyje.

Perkelti pele per norėdami pamatyti stoties vardą.

Tada spustelėkite, norėdami matyti oro stebėjimo ir prognozės.

Norėdami pakeisti žemėlapį: spustelėkite ant žalios mygtukų su juodo kryžiaus žemyn,; žalią mygtuką su brūkšneliu, jei norite nutolinti; arba žalių rodyklių gretimoms žemėlapius.


METAR-TAF: